KLM757 EHAM-MPTO

Flight info

Callsign KLM757
Flight time N/A
Altitude 32000
Route IDRID L980 MANGO DCT ENHAQ DCT GAJIT DCT BAPHU DCT LESLU/M084F320 DCT SOMAX/M084F330 NATG NICSO/M084F340 DCT LOMPI M202 JEBBY DCT 41N060W 37N065W/M084F360 DCT LUNKR DCT AWSOM DCT DUNIG DCT RABAL DCT LAMER/N0490F360 DCT GTK G444 ONGAN UG444 LIDOL UM597 AGUJA LODOP1C
Aircraft B77W/H-SDE1E2E3FGHIJ2J3J4J5M1RWXY/LB1D1

Departure

Time N/A
Airport Amsterdam Airport Schiphol (EHAM)

Arrival

Time 2026-04-28 00:59
Airport Tocumen International Airport (MPTO)
Time Latitude Longitude Altitude Speed Heading
2026-04-27 18:19 48.26577 -48.92264 32150 ft 495 kts 257°
2026-04-27 18:19 48.24236 -49.01964 32160 ft 494 kts 257°
2026-04-27 18:20 48.21891 -49.11640 32161 ft 493 kts 256°
2026-04-27 18:20 48.19538 -49.21305 32172 ft 493 kts 256°
2026-04-27 18:21 48.17179 -49.30953 32175 ft 493 kts 256°
2026-04-27 18:21 48.14813 -49.40589 32179 ft 493 kts 256°
2026-04-27 18:22 48.12436 -49.50226 32193 ft 493 kts 256°
2026-04-27 18:22 48.10056 -49.59837 32195 ft 493 kts 256°
2026-04-27 18:23 48.07667 -49.69437 32200 ft 492 kts 256°
2026-04-27 18:23 48.05274 -49.79017 32208 ft 492 kts 255°
2026-04-27 18:24 48.02891 -49.88518 32212 ft 491 kts 255°
2026-04-27 18:24 48.00490 -49.98058 32223 ft 490 kts 255°
2026-04-27 18:25 47.98136 -50.07595 32224 ft 489 kts 256°
2026-04-27 18:25 47.95857 -50.17142 32231 ft 488 kts 256°
2026-04-27 18:26 47.93576 -50.26673 32239 ft 488 kts 256°
2026-04-27 18:26 47.91275 -50.36192 32240 ft 488 kts 256°
2026-04-27 18:27 47.88965 -50.45681 32240 ft 487 kts 255°
2026-04-27 18:27 47.86647 -50.55159 32249 ft 487 kts 255°
2026-04-27 18:28 47.84322 -50.64623 32257 ft 486 kts 255°
2026-04-27 18:28 47.81992 -50.74075 32259 ft 486 kts 255°
2026-04-27 18:29 47.79658 -50.83501 32267 ft 486 kts 255°
2026-04-27 18:29 47.77332 -50.92854 32271 ft 485 kts 255°
2026-04-27 18:30 47.74986 -51.02249 32278 ft 485 kts 255°
2026-04-27 18:30 47.72633 -51.11634 32295 ft 484 kts 254°
2026-04-27 18:31 47.70277 -51.20991 32291 ft 484 kts 254°
2026-04-27 18:31 47.67917 -51.30327 32295 ft 483 kts 254°
2026-04-27 18:32 47.65552 -51.39643 32295 ft 482 kts 254°
2026-04-27 18:32 47.63186 -51.48926 32300 ft 481 kts 253°
2026-04-27 18:33 47.60815 -51.58193 32305 ft 480 kts 253°
2026-04-27 18:33 47.58443 -51.67425 32311 ft 479 kts 253°
2026-04-27 18:34 47.56070 -51.76624 32315 ft 478 kts 253°
2026-04-27 18:34 47.53694 -51.85807 32317 ft 477 kts 253°
2026-04-27 18:35 47.51256 -51.94922 32323 ft 478 kts 249°
2026-04-27 18:35 47.47758 -52.03357 32333 ft 484 kts 237°
2026-04-27 18:36 47.43242 -52.10808 32338 ft 488 kts 230°
2026-04-27 18:36 47.38536 -52.18028 32330 ft 488 kts 230°
2026-04-27 18:37 47.33845 -52.25249 32328 ft 487 kts 230°
2026-04-27 18:37 47.29176 -52.32485 32329 ft 487 kts 230°
2026-04-27 18:38 47.24519 -52.39710 32332 ft 486 kts 230°
2026-04-27 18:38 47.19862 -52.46917 32334 ft 485 kts 230°
2026-04-27 18:39 47.15238 -52.54051 32337 ft 485 kts 230°
2026-04-27 18:39 47.10587 -52.61207 32331 ft 484 kts 230°
2026-04-27 18:40 47.05930 -52.68350 32345 ft 484 kts 230°
2026-04-27 18:40 47.01278 -52.75468 32346 ft 483 kts 230°
2026-04-27 18:41 46.96627 -52.82564 32336 ft 483 kts 230°
2026-04-27 18:41 46.91975 -52.89642 32334 ft 482 kts 229°
2026-04-27 18:42 46.88109 -52.95511 32338 ft 482 kts 229°
2026-04-27 18:42 46.82675 -53.03738 32334 ft 481 kts 229°
2026-04-27 18:43 46.78024 -53.10760 32338 ft 481 kts 229°
2026-04-27 18:43 46.73375 -53.17760 32341 ft 480 kts 229°
2026-04-27 18:44 46.68727 -53.24739 32339 ft 480 kts 229°
2026-04-27 18:44 46.64078 -53.31701 32337 ft 479 kts 229°
2026-04-27 18:45 46.59428 -53.38647 32344 ft 479 kts 228°
2026-04-27 18:45 46.54781 -53.45571 32347 ft 478 kts 228°
2026-04-27 18:46 46.50135 -53.52476 32350 ft 478 kts 228°
2026-04-27 18:46 46.45487 -53.59365 32353 ft 477 kts 228°
2026-04-27 18:47 46.40836 -53.66240 32357 ft 477 kts 228°
2026-04-27 18:47 46.36186 -53.73097 32366 ft 477 kts 227°
2026-04-27 18:48 46.31567 -53.79889 32367 ft 477 kts 227°
2026-04-27 18:48 46.26913 -53.86717 32372 ft 476 kts 227°
2026-04-27 18:49 46.22260 -53.93524 32369 ft 476 kts 227°
2026-04-27 18:49 46.17605 -54.00318 32376 ft 475 kts 227°
2026-04-27 18:50 46.12956 -54.07085 32375 ft 475 kts 227°
2026-04-27 18:50 46.08304 -54.13840 32382 ft 474 kts 227°
2026-04-27 18:51 46.03652 -54.20578 32380 ft 474 kts 227°
2026-04-27 18:51 45.99001 -54.27296 32384 ft 473 kts 226°
2026-04-27 18:52 45.94351 -54.33997 32385 ft 473 kts 226°
2026-04-27 18:53 45.87379 -54.44012 32385 ft 472 kts 226°
2026-04-27 18:53 45.82730 -54.50669 32386 ft 472 kts 226°
2026-04-27 18:54 45.78078 -54.57314 32386 ft 472 kts 226°
2026-04-27 18:54 45.73427 -54.63941 32390 ft 472 kts 226°
2026-04-27 18:55 45.68775 -54.70553 32390 ft 471 kts 226°
2026-04-27 18:55 45.64120 -54.77153 32393 ft 471 kts 226°
2026-04-27 18:56 45.59495 -54.83695 32394 ft 471 kts 226°
2026-04-27 18:56 45.55591 -54.89203 32394 ft 471 kts 226°
2026-04-27 18:57 45.50177 -54.96824 32392 ft 470 kts 225°
2026-04-27 18:57 45.46274 -55.02305 32394 ft 470 kts 225°
2026-04-27 18:58 45.41614 -55.08833 32389 ft 470 kts 225°
2026-04-27 18:58 45.36956 -55.15343 32398 ft 469 kts 225°
2026-04-27 18:59 45.32299 -55.21835 32391 ft 469 kts 225°
2026-04-27 18:59 45.27640 -55.28315 32390 ft 469 kts 225°
2026-04-27 19:00 45.22983 -55.34777 32383 ft 468 kts 225°
2026-04-27 19:00 45.18355 -55.41182 32393 ft 468 kts 225°
2026-04-27 19:01 45.13693 -55.47619 32387 ft 468 kts 225°
2026-04-27 19:01 45.09032 -55.54039 32389 ft 467 kts 224°
2026-04-27 19:02 45.04369 -55.60446 32395 ft 467 kts 224°
2026-04-27 19:02 44.99707 -55.66838 32392 ft 467 kts 224°
2026-04-27 19:03 44.95037 -55.73224 32386 ft 467 kts 224°
2026-04-27 19:03 44.90370 -55.79591 32390 ft 467 kts 224°
2026-04-27 19:04 44.85698 -55.85950 32395 ft 466 kts 224°
2026-04-27 19:04 44.81028 -55.92291 32401 ft 466 kts 224°
2026-04-27 19:05 44.76355 -55.98622 32398 ft 466 kts 224°
2026-04-27 19:05 44.71679 -56.04940 32397 ft 466 kts 223°
2026-04-27 19:06 44.67004 -56.11244 32397 ft 466 kts 223°
2026-04-27 19:06 44.62321 -56.17543 32402 ft 466 kts 223°
2026-04-27 19:07 44.57640 -56.23824 32404 ft 466 kts 223°
2026-04-27 19:07 44.52957 -56.30093 32404 ft 466 kts 223°
2026-04-27 19:08 44.48282 -56.36338 32409 ft 465 kts 223°
2026-04-27 19:08 44.43587 -56.42594 32407 ft 465 kts 223°
2026-04-27 19:09 44.38897 -56.48830 32405 ft 465 kts 223°
2026-04-27 19:09 44.34206 -56.55051 32406 ft 465 kts 223°
2026-04-27 19:10 44.29540 -56.61225 32411 ft 465 kts 223°
2026-04-27 19:10 44.24849 -56.67420 32406 ft 464 kts 223°
2026-04-27 19:11 44.20155 -56.73602 32402 ft 464 kts 223°
2026-04-27 19:11 44.15462 -56.79770 32402 ft 463 kts 223°
2026-04-27 19:12 44.10770 -56.85924 32399 ft 463 kts 223°
2026-04-27 19:12 44.06078 -56.92066 32405 ft 463 kts 224°
2026-04-27 19:13 44.01382 -56.98191 32403 ft 463 kts 223°
2026-04-27 19:13 43.96275 -57.03670 32405 ft 465 kts 216°
2026-04-27 19:14 43.90909 -57.08691 32402 ft 466 kts 216°
2026-04-27 19:14 43.85542 -57.13734 32400 ft 467 kts 217°
2026-04-27 19:15 43.80177 -57.18801 32400 ft 468 kts 217°
2026-04-27 19:15 43.74797 -57.23885 32398 ft 468 kts 217°
2026-04-27 19:16 43.69408 -57.28966 32400 ft 469 kts 218°
2026-04-27 19:16 43.64016 -57.34037 32401 ft 469 kts 218°
2026-04-27 19:17 43.58619 -57.39100 32399 ft 469 kts 218°
2026-04-27 19:17 43.53228 -57.44147 32396 ft 468 kts 218°
2026-04-27 19:18 43.47869 -57.49153 32398 ft 468 kts 218°
2026-04-27 19:18 43.42487 -57.54169 32396 ft 467 kts 218°
2026-04-27 19:19 43.37111 -57.59170 32408 ft 466 kts 218°
2026-04-27 19:19 43.31744 -57.64151 32396 ft 465 kts 218°
2026-04-27 19:20 43.26384 -57.69115 32400 ft 464 kts 218°
2026-04-27 19:20 43.21039 -57.74055 32391 ft 463 kts 218°
2026-04-27 19:21 43.15700 -57.78979 32392 ft 462 kts 218°
2026-04-27 19:21 43.10369 -57.83887 32389 ft 461 kts 218°
2026-04-27 19:22 43.05145 -57.88929 32394 ft 458 kts 222°
2026-04-27 19:22 43.00144 -57.94306 32390 ft 457 kts 222°
2026-04-27 19:23 42.95149 -57.99679 32385 ft 457 kts 222°
2026-04-27 19:23 42.90147 -58.05030 32385 ft 457 kts 222°
2026-04-27 19:24 42.85143 -58.10360 32389 ft 456 kts 222°
2026-04-27 19:24 42.80138 -58.15678 32381 ft 456 kts 221°
2026-04-27 19:25 42.75132 -58.20984 32374 ft 456 kts 221°
2026-04-27 19:25 42.70125 -58.26281 32378 ft 456 kts 221°
2026-04-27 19:26 42.65126 -58.31560 32374 ft 455 kts 221°
2026-04-27 19:26 42.60127 -58.36827 32372 ft 454 kts 221°
2026-04-27 19:27 42.55138 -58.42072 32373 ft 453 kts 221°
2026-04-27 19:27 42.50158 -58.47297 32368 ft 452 kts 221°
2026-04-27 19:28 42.45229 -58.52458 32365 ft 450 kts 221°
2026-04-27 19:28 42.40277 -58.57633 32357 ft 449 kts 221°
2026-04-27 19:29 42.35344 -58.62777 32356 ft 447 kts 221°
2026-04-27 19:29 42.30417 -58.67905 32358 ft 446 kts 221°
2026-04-27 19:30 42.25504 -58.73008 32356 ft 445 kts 221°
2026-04-27 19:30 42.20589 -58.78103 32353 ft 445 kts 221°
2026-04-27 19:31 42.15684 -58.83176 32353 ft 444 kts 221°
2026-04-27 19:31 42.10785 -58.88235 32353 ft 444 kts 221°
2026-04-27 19:32 42.05944 -58.93222 32351 ft 443 kts 221°
2026-04-27 19:32 42.01055 -58.98250 32349 ft 442 kts 221°
2026-04-27 19:33 41.96171 -59.03261 32347 ft 441 kts 221°
2026-04-27 19:33 41.91296 -59.08255 32344 ft 440 kts 221°
2026-04-27 19:34 41.86432 -59.13227 32339 ft 439 kts 221°
2026-04-27 19:34 41.81568 -59.18189 32346 ft 439 kts 221°
2026-04-27 19:35 41.76712 -59.23134 32334 ft 438 kts 221°
2026-04-27 19:35 41.71862 -59.28063 32338 ft 438 kts 221°
2026-04-27 19:36 41.67008 -59.32987 32335 ft 438 kts 221°
2026-04-27 19:36 41.62156 -59.37898 32333 ft 437 kts 221°
2026-04-27 19:37 41.57295 -59.42810 32389 ft 440 kts 221°
2026-04-27 19:37 41.54857 -59.45270 32778 ft 438 kts 221°
2026-04-27 19:37 41.52435 -59.47708 33324 ft 433 kts 221°
2026-04-27 19:37 41.50044 -59.50113 33860 ft 429 kts 221°
2026-04-27 19:38 41.47671 -59.52498 34325 ft 425 kts 222°
2026-04-27 19:38 41.45313 -59.54868 34625 ft 425 kts 222°
2026-04-27 19:38 41.42946 -59.57247 34788 ft 428 kts 221°
2026-04-27 19:38 41.40563 -59.59641 34973 ft 429 kts 221°
2026-04-27 19:39 41.38206 -59.62005 35181 ft 430 kts 221°
2026-04-27 19:39 41.33407 -59.66809 35285 ft 432 kts 221°
2026-04-27 19:40 41.28607 -59.71602 35309 ft 431 kts 221°
2026-04-27 19:40 41.23825 -59.76368 35309 ft 429 kts 221°
2026-04-27 19:41 41.19053 -59.81118 35304 ft 428 kts 221°
2026-04-27 19:41 41.14284 -59.85857 35306 ft 428 kts 221°
2026-04-27 19:42 41.09517 -59.90586 35302 ft 429 kts 221°
2026-04-27 19:42 41.04737 -59.95318 35304 ft 429 kts 221°
2026-04-27 19:43 40.99999 -60.00136 35299 ft 428 kts 225°
2026-04-27 19:43 40.95794 -60.05658 35303 ft 425 kts 229°
2026-04-27 19:44 40.92372 -60.10338 35294 ft 426 kts 229°
2026-04-27 19:44 40.88233 -60.15958 35292 ft 427 kts 229°
2026-04-27 19:45 40.84082 -60.21572 35290 ft 427 kts 229°
2026-04-27 19:45 40.79928 -60.27179 35284 ft 427 kts 229°
2026-04-27 19:46 40.75779 -60.32767 35288 ft 426 kts 229°
2026-04-27 19:46 40.71624 -60.38354 35289 ft 426 kts 229°
2026-04-27 19:47 40.67476 -60.43921 35284 ft 426 kts 229°
2026-04-27 19:47 40.63327 -60.49479 35276 ft 425 kts 229°
2026-04-27 19:48 40.59179 -60.55026 35270 ft 425 kts 228°
2026-04-27 19:48 40.55030 -60.60563 35262 ft 425 kts 228°
2026-04-27 19:49 40.50883 -60.66087 35260 ft 424 kts 228°
2026-04-27 19:49 40.46734 -60.71604 35256 ft 424 kts 228°
2026-04-27 19:50 40.42585 -60.77111 35254 ft 424 kts 228°
2026-04-27 19:50 40.38436 -60.82607 35254 ft 424 kts 228°
2026-04-27 19:51 40.34284 -60.88096 35248 ft 424 kts 228°
2026-04-27 19:51 40.30130 -60.93578 35247 ft 424 kts 227°
2026-04-27 19:52 40.25978 -60.99048 35233 ft 424 kts 227°
2026-04-27 19:52 40.21823 -61.04511 35230 ft 423 kts 227°
2026-04-27 19:53 40.15589 -61.12689 35224 ft 423 kts 227°
2026-04-27 19:53 40.11430 -61.18133 35220 ft 423 kts 227°
2026-04-27 19:54 40.07301 -61.23527 35221 ft 423 kts 227°
2026-04-27 19:54 40.03117 -61.28983 35210 ft 422 kts 227°
2026-04-27 19:55 39.98984 -61.34363 35199 ft 422 kts 227°
2026-04-27 19:55 39.94823 -61.39770 35198 ft 423 kts 227°
2026-04-27 19:56 39.90657 -61.45172 35202 ft 423 kts 227°
2026-04-27 19:56 39.86482 -61.50577 35199 ft 423 kts 227°
2026-04-27 19:57 39.82305 -61.55976 35190 ft 423 kts 227°
2026-04-27 19:57 39.78123 -61.61370 35181 ft 424 kts 226°
2026-04-27 19:58 39.73936 -61.66760 35191 ft 424 kts 226°
2026-04-27 19:58 39.69738 -61.72157 35162 ft 425 kts 226°
2026-04-27 19:59 39.65532 -61.77552 35164 ft 424 kts 226°
2026-04-27 19:59 39.61337 -61.82924 35160 ft 424 kts 226°
2026-04-27 20:00 39.57143 -61.88285 35159 ft 423 kts 226°
2026-04-27 20:00 39.52952 -61.93632 35148 ft 422 kts 226°
2026-04-27 20:01 39.48766 -61.98964 35148 ft 422 kts 226°
2026-04-27 20:01 39.44581 -62.04285 35146 ft 422 kts 226°
2026-04-27 20:02 39.40393 -62.09601 35127 ft 422 kts 226°
2026-04-27 20:02 39.36199 -62.14914 35143 ft 422 kts 225°
2026-04-27 20:03 39.31992 -62.20235 35118 ft 424 kts 225°
2026-04-27 20:03 39.27773 -62.25561 35114 ft 424 kts 225°
2026-04-27 20:04 39.23579 -62.30846 35109 ft 424 kts 225°
2026-04-27 20:04 39.19357 -62.36156 35101 ft 424 kts 225°
2026-04-27 20:05 39.15137 -62.41455 35098 ft 424 kts 225°
2026-04-27 20:05 39.10913 -62.46750 35089 ft 423 kts 225°
2026-04-27 20:06 39.06693 -62.52031 35087 ft 423 kts 225°
2026-04-27 20:06 39.02468 -62.57308 35080 ft 423 kts 225°
2026-04-27 20:07 38.98237 -62.62584 35081 ft 424 kts 225°
2026-04-27 20:07 38.94004 -62.67853 35075 ft 424 kts 225°
2026-04-27 20:08 38.89769 -62.73115 35070 ft 424 kts 225°
2026-04-27 20:08 38.85534 -62.78368 35063 ft 423 kts 225°
2026-04-27 20:09 38.81301 -62.83609 35063 ft 423 kts 225°
2026-04-27 20:09 38.77070 -62.88839 35054 ft 422 kts 225°
2026-04-27 20:10 38.72848 -62.94049 35053 ft 421 kts 225°
2026-04-27 20:10 38.68631 -62.99243 35051 ft 420 kts 225°
2026-04-27 20:11 38.64416 -63.04427 35053 ft 420 kts 225°
2026-04-27 20:11 38.60230 -63.09565 35043 ft 420 kts 224°
2026-04-27 20:12 38.56697 -63.13895 35038 ft 420 kts 224°
2026-04-27 20:12 38.51794 -63.19894 35042 ft 420 kts 224°
2026-04-27 20:13 38.47569 -63.25055 35031 ft 421 kts 224°
2026-04-27 20:13 38.43338 -63.30214 35026 ft 421 kts 224°
2026-04-27 20:14 38.39105 -63.35366 35035 ft 421 kts 224°
2026-04-27 20:14 38.34855 -63.40529 35031 ft 422 kts 224°
2026-04-27 20:15 38.30599 -63.45691 35027 ft 423 kts 224°
2026-04-27 20:15 38.26333 -63.50857 35035 ft 424 kts 224°
2026-04-27 20:16 38.22055 -63.56029 35014 ft 424 kts 224°
2026-04-27 20:16 38.17774 -63.61195 35022 ft 424 kts 224°
2026-04-27 20:17 38.13496 -63.66349 35024 ft 424 kts 224°
2026-04-27 20:17 38.09940 -63.70626 35018 ft 423 kts 224°
2026-04-27 20:18 38.04940 -63.76630 35018 ft 423 kts 224°
2026-04-27 20:18 38.00666 -63.81752 35017 ft 423 kts 224°
2026-04-27 20:19 37.96397 -63.86861 35013 ft 422 kts 224°
2026-04-27 20:19 37.92124 -63.91965 35016 ft 422 kts 224°
2026-04-27 20:20 37.87849 -63.97064 35014 ft 422 kts 224°
2026-04-27 20:20 37.83574 -64.02153 35010 ft 422 kts 224°
2026-04-27 20:21 37.79297 -64.07238 35009 ft 422 kts 224°
2026-04-27 20:21 37.75021 -64.12312 35013 ft 422 kts 223°
2026-04-27 20:22 37.70768 -64.17350 35008 ft 422 kts 223°
2026-04-27 20:22 37.66486 -64.22414 35004 ft 422 kts 223°
2026-04-27 20:23 37.62206 -64.27468 35005 ft 421 kts 223°
2026-04-27 20:23 37.58060 -64.32355 35003 ft 421 kts 223°
2026-04-27 20:24 37.53781 -64.37392 35002 ft 421 kts 223°
2026-04-27 20:24 37.49501 -64.42420 34997 ft 421 kts 223°
2026-04-27 20:25 37.45228 -64.47433 35001 ft 420 kts 223°
2026-04-27 20:25 37.40945 -64.52449 35004 ft 420 kts 223°
2026-04-27 20:26 37.36667 -64.57452 34995 ft 420 kts 223°
2026-04-27 20:26 37.32392 -64.62442 34990 ft 419 kts 223°
2026-04-27 20:27 37.28115 -64.67427 34992 ft 419 kts 223°
2026-04-27 20:27 37.23869 -64.72367 34993 ft 419 kts 223°
2026-04-27 20:28 37.19590 -64.77339 34993 ft 419 kts 223°
2026-04-27 20:28 37.16003 -64.81500 34993 ft 419 kts 223°
2026-04-27 20:29 37.11033 -64.87256 35003 ft 419 kts 223°
2026-04-27 20:29 37.06754 -64.92205 34991 ft 418 kts 223°
2026-04-27 20:30 37.02476 -64.97143 34988 ft 418 kts 223°
2026-04-27 20:30 36.98002 -65.01770 34985 ft 418 kts 215°
2026-04-27 20:31 36.93178 -65.05826 34989 ft 418 kts 215°
2026-04-27 20:31 36.88365 -65.09905 34987 ft 418 kts 215°
2026-04-27 20:32 36.83559 -65.13986 34991 ft 418 kts 216°
2026-04-27 20:32 36.79563 -65.17378 34985 ft 418 kts 216°
2026-04-27 20:33 36.74752 -65.21457 34988 ft 418 kts 216°
2026-04-27 20:33 36.69939 -65.25529 34991 ft 418 kts 215°
2026-04-27 20:34 36.65128 -65.29594 34986 ft 418 kts 215°
2026-04-27 20:34 36.60318 -65.33652 34983 ft 417 kts 215°
2026-04-27 20:35 36.55510 -65.37701 34986 ft 417 kts 215°
2026-04-27 20:35 36.50704 -65.41743 34985 ft 417 kts 215°
2026-04-27 20:36 36.45896 -65.45780 34985 ft 417 kts 215°
2026-04-27 20:36 36.41086 -65.49813 34985 ft 417 kts 215°
2026-04-27 20:37 36.36269 -65.53846 34986 ft 418 kts 215°
2026-04-27 20:37 36.31452 -65.57872 34984 ft 418 kts 215°
2026-04-27 20:38 36.26632 -65.61895 34982 ft 418 kts 215°
2026-04-27 20:38 36.21806 -65.65917 34980 ft 418 kts 215°
2026-04-27 20:39 36.16976 -65.69935 34984 ft 418 kts 215°
2026-04-27 20:39 36.12144 -65.73950 34983 ft 418 kts 215°
2026-04-27 20:40 36.07345 -65.77931 34978 ft 419 kts 215°
2026-04-27 20:40 36.02465 -65.81973 34987 ft 420 kts 215°
2026-04-27 20:41 35.97612 -65.85987 34987 ft 420 kts 215°
2026-04-27 20:41 35.92741 -65.90011 34978 ft 421 kts 215°
2026-04-27 20:42 35.87866 -65.94030 34981 ft 422 kts 215°
2026-04-27 20:42 35.82982 -65.98051 34984 ft 422 kts 215°
2026-04-27 20:43 35.78127 -66.02043 34985 ft 422 kts 215°
2026-04-27 20:43 35.73241 -66.06054 34975 ft 422 kts 215°
2026-04-27 20:44 35.68355 -66.10059 34982 ft 422 kts 215°
2026-04-27 20:44 35.63471 -66.14056 34980 ft 422 kts 215°
2026-04-27 20:45 35.58580 -66.18054 34975 ft 422 kts 215°
2026-04-27 20:45 35.53682 -66.22051 34975 ft 423 kts 215°
2026-04-27 20:46 35.48769 -66.26055 34977 ft 424 kts 215°
2026-04-27 20:46 35.43844 -66.30063 34977 ft 426 kts 215°
2026-04-27 20:47 35.38905 -66.34077 34973 ft 426 kts 215°
2026-04-27 20:47 35.33824 -66.37847 34983 ft 428 kts 210°
2026-04-27 20:48 35.28307 -66.40662 34982 ft 431 kts 203°
2026-04-27 20:48 35.22631 -66.43049 34978 ft 431 kts 203°
2026-04-27 20:49 35.16959 -66.45436 34978 ft 431 kts 203°
2026-04-27 20:49 35.11336 -66.47815 34979 ft 430 kts 203°
2026-04-27 20:50 35.05706 -66.50202 34981 ft 430 kts 203°
2026-04-27 20:50 35.00056 -66.52596 34984 ft 430 kts 203°
2026-04-27 20:51 34.94404 -66.54987 34983 ft 430 kts 203°
2026-04-27 20:51 34.88759 -66.57372 34996 ft 430 kts 203°
2026-04-27 20:52 34.83109 -66.59755 34989 ft 429 kts 203°
2026-04-27 20:52 34.77463 -66.62133 34986 ft 429 kts 204°
2026-04-27 20:53 34.71822 -66.64505 34988 ft 429 kts 204°
2026-04-27 20:53 34.66177 -66.66876 34991 ft 429 kts 204°
2026-04-27 20:54 34.57717 -66.70422 34995 ft 429 kts 204°
2026-04-27 20:55 34.52081 -66.72781 34996 ft 428 kts 204°
2026-04-27 20:55 34.46447 -66.75135 34995 ft 428 kts 204°
2026-04-27 20:56 34.40820 -66.77483 34993 ft 428 kts 204°
2026-04-27 20:56 34.35188 -66.79829 34993 ft 428 kts 204°
2026-04-27 20:57 34.29605 -66.82152 34995 ft 427 kts 204°
2026-04-27 20:57 34.23942 -66.84505 35002 ft 427 kts 204°
2026-04-27 20:58 34.18317 -66.86839 35004 ft 427 kts 204°
2026-04-27 20:58 34.12695 -66.89169 35002 ft 427 kts 204°
2026-04-27 20:59 34.07067 -66.91497 35006 ft 427 kts 204°
2026-04-27 20:59 34.01441 -66.93822 35006 ft 428 kts 204°
2026-04-27 21:00 33.95807 -66.96146 35003 ft 428 kts 204°
2026-04-27 21:00 33.90211 -66.98452 35007 ft 428 kts 204°
2026-04-27 21:01 33.84534 -67.00787 35007 ft 428 kts 204°
2026-04-27 21:01 33.78927 -67.03091 35010 ft 429 kts 204°
2026-04-27 21:02 33.73278 -67.05409 35015 ft 429 kts 204°
2026-04-27 21:02 33.67613 -67.07730 35015 ft 430 kts 204°
2026-04-27 21:03 33.61945 -67.10049 35016 ft 431 kts 204°
2026-04-27 21:03 33.56268 -67.12368 35017 ft 431 kts 204°
2026-04-27 21:04 33.50581 -67.14689 35016 ft 432 kts 204°
2026-04-27 21:04 33.44885 -67.17009 35018 ft 433 kts 204°
2026-04-27 21:05 33.39177 -67.19332 35021 ft 433 kts 204°
2026-04-27 21:05 33.33468 -67.21651 35017 ft 434 kts 204°
2026-04-27 21:06 33.27751 -67.23970 35019 ft 434 kts 204°
2026-04-27 21:06 33.22037 -67.26286 35018 ft 434 kts 204°
2026-04-27 21:07 33.16313 -67.28602 35018 ft 434 kts 204°
2026-04-27 21:07 33.10590 -67.30915 35020 ft 434 kts 204°
2026-04-27 21:08 33.04866 -67.33226 35021 ft 434 kts 204°
2026-04-27 21:08 32.99150 -67.35439 35017 ft 436 kts 202°
2026-04-27 21:09 32.93314 -67.37446 35019 ft 437 kts 201°
2026-04-27 21:09 32.87470 -67.39427 35020 ft 437 kts 201°
2026-04-27 21:10 32.81631 -67.41432 35019 ft 437 kts 202°
2026-04-27 21:10 32.75795 -67.43452 35024 ft 437 kts 202°
2026-04-27 21:11 32.69954 -67.45476 35022 ft 437 kts 202°
2026-04-27 21:11 32.64117 -67.47497 35021 ft 437 kts 202°
2026-04-27 21:12 32.58394 -67.49476 35019 ft 437 kts 202°
2026-04-27 21:12 32.52550 -67.51492 35027 ft 437 kts 202°
2026-04-27 21:13 32.46705 -67.53507 35025 ft 437 kts 202°
2026-04-27 21:13 32.40860 -67.55519 35025 ft 437 kts 202°
2026-04-27 21:14 32.35017 -67.57527 35027 ft 437 kts 202°
2026-04-27 21:14 32.29172 -67.59533 35031 ft 438 kts 202°
2026-04-27 21:15 32.23321 -67.61539 35027 ft 438 kts 202°
2026-04-27 21:15 32.17474 -67.63540 35034 ft 438 kts 202°
2026-04-27 21:16 32.11621 -67.65542 35038 ft 438 kts 202°
2026-04-27 21:16 32.05765 -67.67541 35033 ft 438 kts 201°
2026-04-27 21:17 31.99904 -67.69539 35034 ft 438 kts 201°
2026-04-27 21:17 31.94039 -67.71536 35034 ft 439 kts 201°
2026-04-27 21:18 31.88212 -67.73518 35032 ft 439 kts 201°
2026-04-27 21:18 31.82304 -67.75524 35030 ft 439 kts 201°
2026-04-27 21:19 31.76470 -67.77503 35038 ft 440 kts 201°
2026-04-27 21:19 31.70589 -67.79495 35038 ft 440 kts 201°
2026-04-27 21:20 31.61757 -67.82482 35039 ft 441 kts 201°
2026-04-27 21:20 31.55861 -67.84472 35034 ft 441 kts 201°
2026-04-27 21:21 31.50912 -67.86141 35046 ft 442 kts 201°
2026-04-27 21:21 31.44992 -67.88134 35034 ft 443 kts 201°
2026-04-27 21:22 31.39069 -67.90126 35038 ft 443 kts 201°
2026-04-27 21:22 31.33137 -67.92119 35036 ft 444 kts 201°
2026-04-27 21:23 31.27234 -67.94099 35036 ft 445 kts 201°
2026-04-27 21:23 31.21281 -67.96094 35036 ft 446 kts 201°
2026-04-27 21:24 31.15313 -67.98090 35037 ft 447 kts 201°
2026-04-27 21:24 31.09329 -68.00090 35041 ft 448 kts 201°
2026-04-27 21:25 31.03337 -68.02089 35041 ft 448 kts 201°
2026-04-27 21:25 30.97333 -68.04090 35039 ft 449 kts 201°
2026-04-27 21:26 30.91319 -68.06091 35042 ft 450 kts 201°
2026-04-27 21:26 30.85303 -68.08091 35039 ft 450 kts 201°
2026-04-27 21:27 30.79278 -68.10091 35037 ft 450 kts 201°
2026-04-27 21:27 30.73258 -68.12086 35040 ft 450 kts 201°
2026-04-27 21:28 30.67232 -68.14081 35038 ft 450 kts 201°
2026-04-27 21:28 30.61253 -68.16058 35041 ft 450 kts 200°
2026-04-27 21:29 30.55231 -68.18047 35041 ft 450 kts 200°
2026-04-27 21:29 30.49205 -68.20034 35044 ft 450 kts 200°
2026-04-27 21:30 30.43180 -68.22019 35041 ft 450 kts 200°
2026-04-27 21:30 30.37154 -68.24002 35043 ft 450 kts 200°
2026-04-27 21:31 30.31134 -68.25979 35044 ft 450 kts 200°
2026-04-27 21:31 30.25103 -68.27958 35038 ft 450 kts 200°
2026-04-27 21:32 30.19064 -68.29937 35039 ft 451 kts 200°
2026-04-27 21:32 30.13029 -68.31912 35039 ft 451 kts 200°
2026-04-27 21:33 30.06993 -68.33885 35039 ft 451 kts 200°
2026-04-27 21:33 30.00953 -68.35857 35042 ft 451 kts 200°
2026-04-27 21:34 29.94904 -68.37830 35047 ft 452 kts 200°
2026-04-27 21:34 29.88859 -68.39798 35043 ft 452 kts 200°
2026-04-27 21:35 29.82802 -68.41768 35039 ft 452 kts 200°
2026-04-27 21:35 29.76747 -68.43734 35047 ft 452 kts 200°
2026-04-27 21:36 29.70729 -68.45686 35045 ft 452 kts 200°
2026-04-27 21:36 29.64668 -68.47650 35046 ft 453 kts 200°
2026-04-27 21:37 29.58601 -68.49614 35046 ft 453 kts 200°
2026-04-27 21:37 29.52533 -68.51575 35044 ft 453 kts 200°
2026-04-27 21:38 29.46462 -68.53534 35046 ft 453 kts 200°
2026-04-27 21:38 29.40386 -68.55493 35041 ft 454 kts 199°
2026-04-27 21:39 29.34305 -68.57451 35039 ft 454 kts 199°
2026-04-27 21:39 29.28221 -68.59408 35049 ft 454 kts 199°
2026-04-27 21:40 29.22140 -68.61361 35047 ft 454 kts 199°
2026-04-27 21:40 29.16049 -68.63315 35044 ft 454 kts 199°
2026-04-27 21:41 29.09964 -68.65264 35045 ft 454 kts 199°
2026-04-27 21:41 29.03880 -68.67211 35043 ft 454 kts 199°
2026-04-27 21:42 28.97795 -68.69156 35044 ft 454 kts 199°
2026-04-27 21:42 28.91713 -68.71098 35046 ft 454 kts 199°
2026-04-27 21:43 28.85630 -68.73038 35044 ft 454 kts 199°
2026-04-27 21:43 28.79557 -68.75003 35044 ft 453 kts 200°
2026-04-27 21:44 28.73529 -68.77092 35046 ft 453 kts 201°
2026-04-27 21:44 28.67503 -68.79206 35045 ft 453 kts 201°
2026-04-27 21:45 28.61474 -68.81303 35046 ft 453 kts 201°
2026-04-27 21:45 28.58447 -68.82351 35150 ft 455 kts 201°
2026-04-27 21:45 28.55464 -68.83381 35473 ft 454 kts 201°
2026-04-27 21:46 28.52452 -68.84419 35860 ft 451 kts 201°
2026-04-27 21:46 28.49455 -68.85450 36246 ft 448 kts 201°
2026-04-27 21:46 28.46472 -68.86476 36586 ft 447 kts 201°
2026-04-27 21:46 28.43505 -68.87498 36886 ft 446 kts 201°
2026-04-27 21:47 28.37537 -68.89553 37022 ft 449 kts 201°
2026-04-27 21:47 28.31569 -68.91603 37037 ft 446 kts 201°
2026-04-27 21:48 28.25639 -68.93637 37035 ft 444 kts 201°
2026-04-27 21:48 28.19694 -68.95675 37041 ft 443 kts 201°
2026-04-27 21:49 28.13837 -68.97681 37044 ft 443 kts 201°
2026-04-27 21:49 28.07935 -68.99700 37044 ft 444 kts 201°
2026-04-27 21:50 28.02018 -69.01722 37047 ft 445 kts 201°
2026-04-27 21:50 27.96081 -69.03748 37049 ft 446 kts 201°
2026-04-27 21:51 27.90131 -69.05776 37050 ft 447 kts 201°
2026-04-27 21:51 27.84161 -69.07808 37040 ft 448 kts 201°
2026-04-27 21:52 27.78182 -69.09841 37051 ft 449 kts 201°
2026-04-27 21:52 27.72197 -69.11873 37052 ft 449 kts 201°
2026-04-27 21:53 27.66213 -69.13903 37045 ft 449 kts 201°
2026-04-27 21:53 27.60235 -69.15928 37045 ft 448 kts 201°
2026-04-27 21:54 27.54259 -69.17951 37044 ft 448 kts 201°
2026-04-27 21:54 27.48294 -69.19968 37044 ft 447 kts 201°
2026-04-27 21:55 27.42331 -69.21981 37046 ft 447 kts 201°
2026-04-27 21:55 27.36376 -69.23990 37049 ft 447 kts 201°
2026-04-27 21:56 27.27447 -69.26998 37048 ft 446 kts 201°
2026-04-27 21:57 27.21501 -69.28998 37047 ft 446 kts 201°
2026-04-27 21:57 27.15557 -69.30995 37045 ft 446 kts 201°
2026-04-27 21:58 27.09656 -69.32976 37041 ft 446 kts 201°
2026-04-27 21:58 27.03716 -69.34967 37046 ft 445 kts 201°
2026-04-27 21:59 26.97781 -69.36955 37048 ft 445 kts 201°
2026-04-27 21:59 26.91851 -69.38939 37046 ft 445 kts 201°
2026-04-27 22:00 26.85927 -69.40919 37048 ft 444 kts 202°
2026-04-27 22:00 26.80005 -69.42896 37045 ft 444 kts 202°
2026-04-27 22:01 26.74092 -69.44869 37043 ft 443 kts 202°
2026-04-27 22:01 26.68205 -69.46874 37046 ft 442 kts 202°
2026-04-27 22:02 26.62345 -69.48946 37047 ft 441 kts 203°
2026-04-27 22:02 26.56492 -69.51017 37045 ft 441 kts 203°
2026-04-27 22:03 26.50639 -69.53077 37046 ft 441 kts 203°
2026-04-27 22:03 26.44787 -69.55129 37041 ft 441 kts 203°
2026-04-27 22:04 26.38933 -69.57178 37042 ft 441 kts 203°
2026-04-27 22:04 26.33086 -69.59223 37043 ft 441 kts 203°
2026-04-27 22:05 26.27236 -69.61267 37042 ft 441 kts 203°
2026-04-27 22:05 26.21429 -69.63293 37041 ft 441 kts 203°
2026-04-27 22:06 26.15536 -69.65348 37040 ft 440 kts 203°
2026-04-27 22:06 26.09688 -69.67384 37056 ft 440 kts 203°
2026-04-27 22:07 26.03875 -69.69407 37049 ft 440 kts 203°
2026-04-27 22:07 25.98026 -69.71439 37047 ft 440 kts 203°
2026-04-27 22:08 25.92179 -69.73469 37042 ft 440 kts 203°
2026-04-27 22:08 25.86330 -69.75498 37046 ft 440 kts 203°
2026-04-27 22:09 25.81433 -69.77194 37041 ft 440 kts 203°
2026-04-27 22:09 25.75625 -69.79205 37039 ft 440 kts 203°
2026-04-27 22:10 25.69783 -69.81225 37037 ft 440 kts 203°
2026-04-27 22:10 25.63938 -69.83244 37044 ft 440 kts 203°
2026-04-27 22:11 25.58103 -69.85257 37040 ft 439 kts 203°
2026-04-27 22:11 25.52265 -69.87270 37036 ft 439 kts 204°
2026-04-27 22:12 25.46434 -69.89278 37040 ft 439 kts 204°
2026-04-27 22:12 25.40605 -69.91283 37037 ft 439 kts 204°
2026-04-27 22:13 25.34776 -69.93287 37043 ft 438 kts 204°
2026-04-27 22:13 25.28951 -69.95287 37039 ft 438 kts 204°
2026-04-27 22:14 25.23132 -69.97283 37041 ft 438 kts 204°
2026-04-27 22:14 25.17315 -69.99276 37039 ft 437 kts 204°
2026-04-27 22:15 25.11509 -70.01264 37039 ft 437 kts 204°
2026-04-27 22:15 25.05708 -70.03249 37036 ft 436 kts 204°
2026-04-27 22:16 24.99911 -70.05229 37036 ft 436 kts 204°
2026-04-27 22:16 24.94080 -70.07100 37036 ft 437 kts 202°
2026-04-27 22:17 24.88228 -70.08901 37038 ft 436 kts 202°
2026-04-27 22:17 24.82423 -70.10692 37036 ft 436 kts 203°
2026-04-27 22:18 24.76586 -70.12504 37038 ft 436 kts 203°
2026-04-27 22:18 24.70758 -70.14318 37036 ft 435 kts 203°
2026-04-27 22:19 24.64936 -70.16130 37031 ft 435 kts 203°
2026-04-27 22:19 24.59121 -70.17938 37034 ft 434 kts 203°
2026-04-27 22:20 24.53305 -70.19744 37037 ft 434 kts 203°
2026-04-27 22:20 24.47499 -70.21544 37034 ft 434 kts 203°
2026-04-27 22:21 24.41689 -70.23345 37039 ft 433 kts 204°
2026-04-27 22:21 24.35887 -70.25141 37033 ft 433 kts 204°
2026-04-27 22:22 24.30088 -70.26935 37035 ft 433 kts 204°
2026-04-27 22:22 24.24290 -70.28726 37034 ft 433 kts 204°
2026-04-27 22:23 24.18497 -70.30515 37035 ft 433 kts 203°
2026-04-27 22:23 24.12703 -70.32302 37038 ft 433 kts 204°
2026-04-27 22:24 24.06910 -70.34087 37041 ft 433 kts 204°
2026-04-27 22:24 24.01112 -70.35872 37049 ft 433 kts 203°
2026-04-27 22:25 23.95317 -70.37654 37030 ft 433 kts 203°
2026-04-27 22:25 23.89520 -70.39435 37037 ft 433 kts 203°
2026-04-27 22:26 23.83723 -70.41215 37038 ft 433 kts 203°
2026-04-27 22:26 23.77927 -70.42992 37037 ft 433 kts 203°
2026-04-27 22:27 23.72133 -70.44767 37041 ft 433 kts 203°
2026-04-27 22:27 23.66335 -70.46542 37037 ft 433 kts 203°
2026-04-27 22:28 23.60540 -70.48315 37039 ft 433 kts 203°
2026-04-27 22:28 23.54740 -70.50087 37042 ft 433 kts 203°
2026-04-27 22:29 23.48936 -70.51859 37039 ft 433 kts 203°
2026-04-27 22:29 23.43129 -70.53630 37040 ft 434 kts 203°
2026-04-27 22:30 23.37318 -70.55401 37040 ft 434 kts 203°
2026-04-27 22:30 23.31543 -70.57159 37040 ft 434 kts 203°
2026-04-27 22:31 23.25723 -70.58929 37043 ft 434 kts 203°
2026-04-27 22:31 23.19899 -70.60699 37037 ft 435 kts 203°
2026-04-27 22:32 23.14081 -70.62466 37034 ft 435 kts 203°
2026-04-27 22:32 23.08251 -70.64234 37031 ft 435 kts 203°
2026-04-27 22:33 23.02425 -70.66000 37037 ft 435 kts 202°
2026-04-27 22:33 22.96595 -70.67765 37038 ft 435 kts 202°
2026-04-27 22:34 22.90764 -70.69529 37041 ft 435 kts 202°
2026-04-27 22:34 22.84928 -70.71293 37038 ft 435 kts 202°
2026-04-27 22:35 22.79090 -70.73056 37039 ft 436 kts 202°
2026-04-27 22:35 22.73249 -70.74819 37044 ft 436 kts 202°
2026-04-27 22:36 22.67397 -70.76583 37031 ft 436 kts 202°
2026-04-27 22:36 22.61546 -70.78345 37041 ft 437 kts 202°
2026-04-27 22:37 22.55688 -70.80108 37040 ft 437 kts 202°
2026-04-27 22:37 22.49823 -70.81871 37042 ft 437 kts 202°
2026-04-27 22:38 22.43957 -70.83634 37038 ft 438 kts 202°
2026-04-27 22:38 22.38084 -70.85396 37038 ft 438 kts 202°
2026-04-27 22:39 22.32212 -70.87157 37039 ft 438 kts 202°
2026-04-27 22:39 22.26374 -70.88906 37039 ft 438 kts 202°
2026-04-27 22:40 22.20497 -70.90665 37038 ft 439 kts 202°
2026-04-27 22:40 22.14610 -70.92426 37039 ft 439 kts 202°
2026-04-27 22:41 22.08727 -70.94184 37036 ft 439 kts 202°
2026-04-27 22:41 22.02838 -70.95942 37038 ft 439 kts 202°
2026-04-27 22:42 21.96949 -70.97699 37037 ft 439 kts 202°
2026-04-27 22:42 21.91054 -70.99456 37037 ft 439 kts 202°
2026-04-27 22:43 21.85160 -71.01211 37038 ft 440 kts 202°
2026-04-27 22:43 21.79263 -71.02966 37036 ft 440 kts 202°
2026-04-27 22:44 21.73365 -71.04719 37039 ft 440 kts 202°
2026-04-27 22:44 21.67470 -71.06471 37040 ft 440 kts 202°
2026-04-27 22:45 21.61570 -71.08222 37038 ft 440 kts 202°
2026-04-27 22:45 21.55715 -71.09959 37040 ft 440 kts 202°
2026-04-27 22:46 21.49814 -71.11707 37038 ft 440 kts 201°
2026-04-27 22:46 21.44092 -71.13856 37042 ft 432 kts 210°
2026-04-27 22:47 21.38824 -71.16878 37038 ft 427 kts 217°
2026-04-27 22:47 21.33804 -71.20282 37035 ft 427 kts 217°
2026-04-27 22:48 21.28771 -71.23694 37038 ft 428 kts 217°
2026-04-27 22:48 21.23725 -71.27088 37035 ft 428 kts 217°
2026-04-27 22:49 21.18671 -71.30478 37034 ft 429 kts 217°
2026-04-27 22:49 21.13618 -71.33864 37039 ft 429 kts 216°
2026-04-27 22:50 21.08560 -71.37252 37046 ft 429 kts 216°
2026-04-27 22:50 21.03471 -71.40582 37030 ft 430 kts 214°
2026-04-27 22:51 20.98242 -71.43702 37039 ft 430 kts 213°
2026-04-27 22:51 20.93006 -71.46794 37033 ft 430 kts 214°
2026-04-27 22:52 20.87782 -71.49912 37036 ft 430 kts 214°
2026-04-27 22:52 20.82608 -71.53016 37034 ft 429 kts 214°
2026-04-27 22:53 20.77403 -71.56141 37036 ft 429 kts 214°
2026-04-27 22:53 20.72198 -71.59262 37030 ft 429 kts 214°
2026-04-27 22:54 20.66996 -71.62379 37033 ft 429 kts 214°
2026-04-27 22:54 20.61791 -71.65494 37032 ft 429 kts 214°
2026-04-27 22:55 20.56591 -71.68605 37036 ft 429 kts 214°
2026-04-27 22:55 20.51387 -71.71715 37034 ft 429 kts 214°
2026-04-27 22:56 20.46183 -71.74823 37036 ft 429 kts 214°
2026-04-27 22:56 20.40735 -71.77490 37051 ft 435 kts 206°
2026-04-27 22:57 20.34881 -71.79292 37049 ft 440 kts 199°
2026-04-27 22:57 20.28912 -71.80756 37042 ft 440 kts 199°
2026-04-27 22:58 20.23960 -71.82009 37041 ft 440 kts 200°
2026-04-27 22:58 20.18018 -71.83549 37035 ft 439 kts 200°
2026-04-27 22:59 20.12082 -71.85095 37043 ft 439 kts 200°
2026-04-27 22:59 20.06150 -71.86635 37038 ft 439 kts 200°
2026-04-27 23:00 19.97258 -71.88938 37033 ft 438 kts 200°
2026-04-27 23:00 19.91333 -71.90471 37029 ft 438 kts 200°
2026-04-27 23:01 19.85406 -71.92003 37032 ft 438 kts 200°
2026-04-27 23:01 19.79490 -71.93531 37042 ft 438 kts 200°
2026-04-27 23:02 19.73561 -71.95062 37035 ft 438 kts 200°
2026-04-27 23:02 19.67632 -71.96592 37034 ft 438 kts 200°
2026-04-27 23:03 19.61717 -71.98165 37028 ft 437 kts 201°
2026-04-27 23:03 19.55871 -71.99944 37028 ft 437 kts 202°
2026-04-27 23:04 19.50032 -72.01751 37032 ft 438 kts 202°
2026-04-27 23:04 19.44175 -72.03535 37032 ft 438 kts 201°
2026-04-27 23:05 19.38299 -72.05308 37025 ft 439 kts 201°
2026-04-27 23:05 19.32418 -72.07077 37017 ft 439 kts 201°
2026-04-27 23:06 19.26569 -72.08837 37016 ft 440 kts 201°
2026-04-27 23:06 19.20685 -72.10607 37016 ft 439 kts 201°
2026-04-27 23:07 19.14803 -72.12375 37012 ft 439 kts 201°
2026-04-27 23:07 19.08925 -72.14140 37017 ft 439 kts 201°
2026-04-27 23:08 19.03057 -72.15902 36986 ft 437 kts 201°
2026-04-27 23:08 18.97204 -72.17692 37004 ft 438 kts 201°
2026-04-27 23:09 18.91368 -72.19580 36990 ft 439 kts 202°
2026-04-27 23:09 18.85523 -72.21475 36958 ft 440 kts 201°
2026-04-27 23:10 18.79673 -72.23357 36974 ft 440 kts 201°
2026-04-27 23:10 18.73825 -72.25233 36970 ft 439 kts 201°
2026-04-27 23:11 18.67979 -72.27107 36968 ft 439 kts 201°
2026-04-27 23:11 18.62126 -72.28982 36978 ft 440 kts 201°
2026-04-27 23:12 18.56271 -72.30859 36981 ft 440 kts 201°
2026-04-27 23:12 18.50423 -72.32770 36977 ft 440 kts 201°
2026-04-27 23:13 18.44579 -72.34689 36983 ft 440 kts 201°
2026-04-27 23:13 18.38724 -72.36608 36972 ft 441 kts 201°
2026-04-27 23:14 18.32853 -72.38528 36978 ft 442 kts 201°
2026-04-27 23:14 18.26976 -72.40446 36994 ft 442 kts 201°
2026-04-27 23:15 18.21098 -72.42365 37000 ft 442 kts 201°
2026-04-27 23:15 18.15235 -72.44277 37004 ft 441 kts 201°
2026-04-27 23:16 18.09374 -72.46188 37011 ft 441 kts 201°
2026-04-27 23:16 18.03559 -72.48082 37010 ft 441 kts 201°
2026-04-27 23:17 17.97701 -72.49989 37009 ft 441 kts 201°
2026-04-27 23:17 17.91841 -72.51881 37004 ft 442 kts 199°
2026-04-27 23:18 17.85781 -72.53147 37014 ft 446 kts 193°
2026-04-27 23:18 17.79642 -72.54111 37001 ft 447 kts 193°
2026-04-27 23:19 17.73496 -72.55089 37005 ft 447 kts 193°
2026-04-27 23:19 17.67346 -72.56083 37003 ft 447 kts 193°
2026-04-27 23:20 17.61199 -72.57083 36992 ft 447 kts 193°
2026-04-27 23:20 17.55053 -72.58083 36990 ft 447 kts 193°
2026-04-27 23:21 17.48900 -72.59082 37002 ft 447 kts 193°
2026-04-27 23:21 17.42753 -72.60080 37005 ft 447 kts 193°
2026-04-27 23:22 17.36601 -72.61078 36997 ft 447 kts 193°
2026-04-27 23:22 17.30451 -72.62074 36997 ft 447 kts 193°
2026-04-27 23:23 17.24313 -72.63068 36997 ft 446 kts 193°
2026-04-27 23:23 17.18186 -72.64060 36997 ft 446 kts 193°
2026-04-27 23:24 17.12053 -72.65052 36998 ft 445 kts 193°
2026-04-27 23:24 17.05931 -72.66042 36994 ft 445 kts 193°
2026-04-27 23:25 16.99824 -72.67074 36999 ft 443 kts 195°
2026-04-27 23:25 16.93891 -72.68711 37002 ft 441 kts 199°
2026-04-27 23:26 16.87987 -72.70445 36996 ft 441 kts 199°
2026-04-27 23:26 16.82071 -72.72165 36994 ft 441 kts 199°
2026-04-27 23:27 16.76155 -72.73872 36993 ft 441 kts 199°
2026-04-27 23:27 16.70235 -72.75574 36995 ft 442 kts 199°
2026-04-27 23:28 16.64305 -72.77279 36995 ft 442 kts 199°
2026-04-27 23:28 16.58368 -72.78985 36993 ft 443 kts 199°
2026-04-27 23:29 16.52425 -72.80692 36990 ft 443 kts 199°
2026-04-27 23:29 16.46482 -72.82398 36993 ft 443 kts 199°
2026-04-27 23:30 16.40526 -72.84107 36988 ft 444 kts 199°
2026-04-27 23:30 16.34613 -72.85802 36992 ft 444 kts 199°
2026-04-27 23:31 16.28651 -72.87511 36990 ft 444 kts 199°
2026-04-27 23:31 16.22683 -72.89217 36985 ft 445 kts 199°
2026-04-27 23:32 16.16706 -72.90914 36988 ft 445 kts 198°
2026-04-27 23:32 16.10731 -72.92608 36987 ft 445 kts 198°
2026-04-27 23:33 16.04754 -72.94303 36996 ft 445 kts 198°
2026-04-27 23:33 15.98775 -72.95999 36986 ft 446 kts 198°
2026-04-27 23:34 15.92792 -72.97695 36986 ft 446 kts 198°
2026-04-27 23:34 15.86800 -72.99393 36988 ft 446 kts 198°
2026-04-27 23:35 15.80807 -73.01089 36975 ft 447 kts 198°
2026-04-27 23:35 15.74810 -73.02786 36984 ft 447 kts 198°
2026-04-27 23:36 15.68810 -73.04483 36979 ft 447 kts 198°
2026-04-27 23:36 15.62803 -73.06180 36979 ft 447 kts 198°
2026-04-27 23:37 15.56792 -73.07878 36976 ft 448 kts 198°
2026-04-27 23:37 15.50779 -73.09578 36979 ft 448 kts 198°
2026-04-27 23:38 15.44766 -73.11283 36971 ft 448 kts 198°
2026-04-27 23:38 15.38745 -73.12990 36971 ft 448 kts 198°
2026-04-27 23:39 15.32727 -73.14694 36968 ft 449 kts 198°
2026-04-27 23:39 15.26706 -73.16397 36974 ft 449 kts 198°
2026-04-27 23:40 15.20680 -73.18102 36970 ft 449 kts 198°
2026-04-27 23:40 15.14663 -73.19802 36971 ft 449 kts 198°
2026-04-27 23:41 15.08946 -73.22150 36969 ft 444 kts 211°
2026-04-27 23:41 15.03882 -73.25751 36967 ft 442 kts 223°
2026-04-27 23:42 14.99413 -73.30113 36970 ft 442 kts 224°
2026-04-27 23:42 14.94957 -73.34505 36970 ft 443 kts 224°
2026-04-27 23:43 14.90458 -73.38869 36963 ft 444 kts 223°
2026-04-27 23:43 14.85950 -73.43230 36962 ft 444 kts 224°
2026-04-27 23:44 14.81562 -73.47740 36964 ft 445 kts 225°
2026-04-27 23:44 14.77228 -73.52301 36958 ft 445 kts 225°
2026-04-27 23:45 14.73610 -73.56088 36965 ft 445 kts 225°
2026-04-27 23:45 14.69246 -73.60625 36962 ft 445 kts 225°
2026-04-27 23:46 14.64871 -73.65162 36954 ft 446 kts 225°
2026-04-27 23:46 14.60497 -73.69695 36956 ft 446 kts 225°
2026-04-27 23:47 14.56119 -73.74229 36962 ft 446 kts 225°
2026-04-27 23:47 14.51747 -73.78757 36958 ft 446 kts 225°
2026-04-27 23:48 14.47361 -73.83295 36962 ft 446 kts 225°
2026-04-27 23:48 14.42979 -73.87827 36958 ft 446 kts 225°
2026-04-27 23:49 14.38596 -73.92358 36954 ft 446 kts 225°
2026-04-27 23:49 14.34211 -73.96889 36957 ft 446 kts 225°
2026-04-27 23:50 14.29822 -74.01421 36958 ft 447 kts 225°
2026-04-27 23:50 14.25435 -74.05961 36958 ft 447 kts 225°
2026-04-27 23:51 14.21049 -74.10501 36954 ft 447 kts 225°
2026-04-27 23:51 14.16658 -74.15041 36958 ft 447 kts 225°
2026-04-27 23:52 14.12269 -74.19587 36952 ft 447 kts 225°
2026-04-27 23:52 14.07883 -74.24136 36956 ft 448 kts 225°
2026-04-27 23:53 14.03494 -74.28687 36954 ft 448 kts 225°
2026-04-27 23:53 13.99103 -74.33237 36948 ft 448 kts 225°
2026-04-27 23:54 13.94739 -74.37756 36954 ft 448 kts 225°
2026-04-27 23:54 13.90343 -74.42305 36953 ft 448 kts 225°
2026-04-27 23:55 13.85944 -74.46854 36949 ft 449 kts 225°
2026-04-27 23:55 13.81537 -74.51410 36947 ft 449 kts 225°
2026-04-27 23:56 13.77122 -74.55970 36946 ft 450 kts 224°
2026-04-27 23:56 13.72697 -74.60539 36953 ft 451 kts 224°
2026-04-27 23:57 13.68257 -74.65120 36944 ft 452 kts 224°
2026-04-27 23:57 13.63812 -74.69704 36952 ft 453 kts 224°
2026-04-27 23:58 13.59353 -74.74300 36949 ft 454 kts 224°
2026-04-27 23:58 13.54883 -74.78905 36946 ft 455 kts 224°
2026-04-27 23:59 13.50407 -74.83513 36945 ft 456 kts 224°
2026-04-27 23:59 13.45925 -74.88126 36943 ft 456 kts 224°
2026-04-28 00:00 13.41438 -74.92740 36946 ft 456 kts 224°
2026-04-28 00:00 13.36949 -74.97354 36940 ft 456 kts 224°
2026-04-28 00:01 13.32463 -75.01963 36945 ft 456 kts 224°
2026-04-28 00:01 13.27979 -75.06567 36949 ft 456 kts 224°
2026-04-28 00:02 13.23496 -75.11168 36944 ft 456 kts 224°
2026-04-28 00:02 13.19015 -75.15765 36945 ft 456 kts 224°
2026-04-28 00:03 13.14563 -75.20328 36941 ft 455 kts 224°
2026-04-28 00:03 13.10082 -75.24920 36940 ft 455 kts 225°
2026-04-28 00:04 13.03367 -75.31798 36939 ft 455 kts 225°
2026-04-28 00:05 12.98894 -75.36378 36938 ft 454 kts 225°
2026-04-28 00:05 12.94420 -75.40956 36937 ft 454 kts 224°
2026-04-28 00:06 12.89952 -75.45522 36941 ft 454 kts 224°
2026-04-28 00:06 12.85480 -75.50087 36938 ft 454 kts 224°
2026-04-28 00:07 12.81008 -75.54651 36937 ft 454 kts 224°
2026-04-28 00:07 12.76538 -75.59212 36937 ft 454 kts 224°
2026-04-28 00:08 12.72064 -75.63775 36939 ft 454 kts 224°
2026-04-28 00:08 12.67592 -75.68333 36940 ft 454 kts 224°
2026-04-28 00:09 12.63107 -75.72902 36935 ft 455 kts 225°
2026-04-28 00:09 12.58622 -75.77469 36937 ft 455 kts 225°
2026-04-28 00:10 12.54136 -75.82034 36936 ft 455 kts 225°
2026-04-28 00:10 12.49644 -75.86603 36938 ft 455 kts 225°
2026-04-28 00:11 12.45149 -75.91173 36933 ft 456 kts 225°
2026-04-28 00:11 12.40653 -75.95743 36934 ft 456 kts 225°
2026-04-28 00:12 12.36155 -76.00312 36934 ft 456 kts 225°
2026-04-28 00:12 12.31656 -76.04879 36934 ft 456 kts 225°
2026-04-28 00:13 12.27222 -76.09378 36934 ft 456 kts 225°
2026-04-28 00:13 12.22753 -76.13910 36933 ft 456 kts 225°
2026-04-28 00:14 12.18253 -76.18472 36933 ft 456 kts 225°
2026-04-28 00:14 12.13754 -76.23032 36928 ft 456 kts 225°
2026-04-28 00:15 12.09254 -76.27592 36930 ft 456 kts 225°
2026-04-28 00:15 12.04752 -76.32151 36930 ft 456 kts 225°
2026-04-28 00:16 12.00250 -76.36709 36930 ft 456 kts 225°
2026-04-28 00:16 11.95742 -76.41269 36928 ft 456 kts 225°
2026-04-28 00:17 11.91238 -76.45824 36930 ft 456 kts 225°
2026-04-28 00:17 11.86728 -76.50382 36933 ft 456 kts 225°
2026-04-28 00:18 11.82222 -76.54934 36927 ft 456 kts 225°
2026-04-28 00:18 11.77714 -76.59486 36929 ft 456 kts 225°
2026-04-28 00:19 11.73201 -76.64040 36932 ft 456 kts 225°
2026-04-28 00:19 11.68692 -76.68589 36930 ft 456 kts 225°
2026-04-28 00:20 11.64183 -76.73136 36928 ft 456 kts 225°
2026-04-28 00:20 11.59669 -76.77685 36928 ft 456 kts 225°
2026-04-28 00:21 11.55160 -76.82227 36931 ft 456 kts 225°
2026-04-28 00:21 11.50635 -76.86783 36931 ft 457 kts 225°
2026-04-28 00:22 11.46117 -76.91330 36928 ft 457 kts 225°
2026-04-28 00:22 11.41597 -76.95878 36930 ft 457 kts 225°
2026-04-28 00:23 11.37060 -77.00443 36930 ft 458 kts 225°
2026-04-28 00:23 11.32632 -77.05108 36927 ft 458 kts 226°
2026-04-28 00:24 11.28255 -77.09820 36928 ft 458 kts 226°
2026-04-28 00:24 11.23856 -77.14529 36930 ft 458 kts 226°
2026-04-28 00:25 11.19454 -77.19218 36928 ft 458 kts 226°
2026-04-28 00:25 11.15041 -77.23912 36930 ft 459 kts 226°
2026-04-28 00:26 11.10654 -77.28576 36930 ft 459 kts 226°
2026-04-28 00:26 11.06242 -77.33266 36929 ft 459 kts 226°
2026-04-28 00:27 11.01827 -77.37958 36927 ft 459 kts 226°
2026-04-28 00:27 10.97403 -77.42643 36926 ft 459 kts 225°
2026-04-28 00:28 10.92871 -77.47227 36929 ft 459 kts 224°
2026-04-28 00:28 10.88301 -77.51774 36929 ft 459 kts 224°
2026-04-28 00:29 10.83744 -77.56323 36929 ft 459 kts 225°
2026-04-28 00:29 10.79192 -77.60887 36929 ft 459 kts 225°
2026-04-28 00:30 10.74646 -77.65449 36929 ft 459 kts 225°
2026-04-28 00:30 10.70098 -77.70012 36928 ft 459 kts 225°
2026-04-28 00:31 10.65550 -77.74573 36932 ft 459 kts 225°
2026-04-28 00:31 10.61002 -77.79131 36925 ft 459 kts 225°
2026-04-28 00:32 10.57219 -77.82920 36930 ft 459 kts 225°
2026-04-28 00:32 10.52668 -77.87476 36929 ft 459 kts 225°
2026-04-28 00:33 10.48119 -77.92030 36932 ft 459 kts 225°
2026-04-28 00:33 10.43568 -77.96582 36931 ft 459 kts 225°
2026-04-28 00:34 10.39014 -78.01137 36925 ft 459 kts 225°
2026-04-28 00:34 10.34464 -78.05685 36928 ft 459 kts 225°
2026-04-28 00:35 10.29911 -78.10234 36934 ft 459 kts 225°
2026-04-28 00:35 10.25356 -78.14784 36932 ft 459 kts 225°
2026-04-28 00:36 10.20803 -78.19329 36928 ft 459 kts 225°
2026-04-28 00:36 10.16243 -78.23879 36926 ft 459 kts 225°
2026-04-28 00:37 10.11688 -78.28422 36923 ft 459 kts 225°
2026-04-28 00:37 10.09418 -78.30686 36204 ft 470 kts 224°
2026-04-28 00:37 10.07082 -78.33016 35481 ft 470 kts 224°
2026-04-28 00:37 10.04745 -78.35346 34610 ft 472 kts 223°
2026-04-28 00:38 10.02394 -78.37688 33674 ft 475 kts 223°
2026-04-28 00:38 10.00028 -78.40045 32663 ft 478 kts 223°
2026-04-28 00:38 9.97654 -78.42408 31810 ft 477 kts 223°
2026-04-28 00:38 9.95299 -78.44754 31139 ft 473 kts 223°
2026-04-28 00:39 9.92959 -78.47085 30463 ft 470 kts 222°
2026-04-28 00:39 9.90634 -78.49400 29786 ft 467 kts 222°
2026-04-28 00:39 9.88322 -78.51700 29059 ft 463 kts 223°
2026-04-28 00:39 9.86034 -78.53976 28395 ft 459 kts 223°
2026-04-28 00:40 9.83764 -78.56234 27753 ft 455 kts 223°
2026-04-28 00:40 9.81513 -78.58473 27124 ft 451 kts 223°
2026-04-28 00:40 9.79280 -78.60693 26493 ft 448 kts 223°
2026-04-28 00:40 9.77061 -78.62899 25902 ft 445 kts 224°
2026-04-28 00:41 9.74860 -78.65086 25321 ft 442 kts 224°
2026-04-28 00:41 9.72673 -78.67260 24724 ft 440 kts 224°
2026-04-28 00:41 9.70491 -78.69427 24110 ft 439 kts 224°
2026-04-28 00:41 9.68313 -78.71591 23500 ft 438 kts 225°
2026-04-28 00:42 9.66140 -78.73750 22791 ft 437 kts 225°
2026-04-28 00:42 9.63976 -78.75899 22158 ft 434 kts 224°
2026-04-28 00:42 9.61831 -78.78030 21545 ft 431 kts 224°
2026-04-28 00:42 9.59696 -78.80149 20958 ft 429 kts 224°
2026-04-28 00:43 9.57599 -78.82231 20382 ft 427 kts 224°
2026-04-28 00:43 9.55460 -78.84353 19783 ft 425 kts 224°
2026-04-28 00:43 9.53347 -78.86450 19177 ft 424 kts 224°
2026-04-28 00:43 9.51242 -78.88538 18591 ft 423 kts 224°
2026-04-28 00:44 9.49170 -78.90593 17966 ft 422 kts 224°
2026-04-28 00:44 9.47075 -78.92671 17327 ft 421 kts 224°
2026-04-28 00:44 9.44989 -78.94738 16729 ft 418 kts 224°
2026-04-28 00:44 9.42918 -78.96792 16138 ft 415 kts 224°
2026-04-28 00:45 9.40860 -78.98832 15548 ft 412 kts 224°
2026-04-28 00:45 9.38815 -79.00858 14965 ft 410 kts 224°
2026-04-28 00:45 9.36784 -79.02871 14416 ft 407 kts 224°
2026-04-28 00:45 9.34775 -79.04861 14066 ft 398 kts 224°
2026-04-28 00:46 9.33478 -79.06147 13944 ft 390 kts 224°
2026-04-28 00:46 9.32990 -79.06630 13881 ft 387 kts 224°
2026-04-28 00:46 9.31460 -79.08146 13567 ft 382 kts 224°
2026-04-28 00:46 9.29582 -79.10006 13340 ft 372 kts 224°
2026-04-28 00:47 9.27764 -79.11805 13164 ft 360 kts 224°
2026-04-28 00:47 9.25995 -79.13550 12990 ft 350 kts 223°
2026-04-28 00:47 9.24118 -79.15074 12715 ft 342 kts 214°
2026-04-28 00:47 9.22146 -79.16384 12467 ft 335 kts 212°
2026-04-28 00:48 9.20201 -79.17617 12330 ft 325 kts 212°
2026-04-28 00:48 9.18313 -79.18821 12198 ft 316 kts 212°
2026-04-28 00:48 9.16482 -79.20009 11955 ft 311 kts 212°
2026-04-28 00:48 9.14678 -79.21195 11658 ft 308 kts 213°
2026-04-28 00:49 9.12920 -79.22361 11446 ft 302 kts 213°
2026-04-28 00:49 9.11161 -79.23533 11207 ft 295 kts 213°
2026-04-28 00:49 9.09504 -79.24640 10706 ft 286 kts 213°
2026-04-28 00:49 9.07841 -79.25752 10139 ft 280 kts 213°
2026-04-28 00:50 9.06250 -79.26816 9579 ft 275 kts 213°
2026-04-28 00:50 9.04664 -79.27877 8976 ft 271 kts 213°
2026-04-28 00:50 9.03101 -79.28922 8392 ft 271 kts 213°
2026-04-28 00:50 9.01509 -79.29944 8167 ft 270 kts 210°
2026-04-28 00:51 8.99868 -79.30861 7945 ft 268 kts 208°
2026-04-28 00:51 8.98244 -79.31740 7730 ft 264 kts 208°
2026-04-28 00:51 8.96617 -79.32622 7382 ft 266 kts 208°
2026-04-28 00:51 8.94998 -79.33505 7136 ft 263 kts 208°
2026-04-28 00:52 8.93389 -79.34387 6827 ft 263 kts 208°
2026-04-28 00:52 8.91789 -79.35268 6582 ft 261 kts 208°
2026-04-28 00:52 8.90207 -79.36141 6182 ft 257 kts 208°
2026-04-28 00:52 8.88636 -79.37008 5646 ft 256 kts 209°
2026-04-28 00:53 8.87084 -79.37864 5141 ft 254 kts 209°
2026-04-28 00:53 8.85556 -79.38725 4686 ft 249 kts 214°
2026-04-28 00:53 8.84408 -79.40003 4312 ft 250 kts 247°
2026-04-28 00:53 8.84080 -79.41755 4048 ft 262 kts 276°
2026-04-28 00:54 8.84655 -79.43469 3705 ft 259 kts 308°
2026-04-28 00:54 8.85945 -79.44676 3440 ft 249 kts 325°
2026-04-28 00:54 8.87322 -79.45679 3319 ft 240 kts 325°
2026-04-28 00:54 8.88656 -79.46637 3207 ft 229 kts 332°
2026-04-28 00:55 8.90131 -79.47017 3069 ft 214 kts
2026-04-28 00:55 8.91490 -79.46603 2805 ft 196 kts 22°
2026-04-28 00:55 8.92704 -79.46075 2632 ft 188 kts 24°
2026-04-28 00:55 8.93872 -79.45476 2371 ft 186 kts 28°
2026-04-28 00:56 8.94989 -79.44845 2109 ft 180 kts 28°
2026-04-28 00:56 8.96042 -79.44243 1877 ft 167 kts 28°
2026-04-28 00:56 8.97018 -79.43684 1684 ft 157 kts 28°
2026-04-28 00:56 8.97940 -79.43157 1494 ft 147 kts 28°
2026-04-28 00:57 8.98788 -79.42673 1330 ft 138 kts 28°
2026-04-28 00:57 8.99637 -79.42188 1164 ft 143 kts 29°
2026-04-28 00:57 9.00501 -79.41694 985 ft 141 kts 27°
2026-04-28 00:57 9.01349 -79.41210 815 ft 139 kts 28°
2026-04-28 00:58 9.02191 -79.40728 656 ft 139 kts 28°
2026-04-28 00:58 9.03052 -79.40236 429 ft 144 kts 29°
2026-04-28 00:58 9.03920 -79.39751 269 ft 138 kts 30°
2026-04-28 00:58 9.04747 -79.39271 86 ft 136 kts 30°
2026-04-28 00:59 9.05529 -79.38823 35 ft 114 kts 29°
2026-04-28 00:59 9.06088 -79.38506 36 ft 70 kts 29°
2026-04-28 00:59 9.06389 -79.38378 34 ft 25 kts
2026-04-28 00:59 9.06455 -79.38376 34 ft 6 kts 360°
2026-04-28 01:00 9.06535 -79.38377 35 ft 13 kts 359°
2026-04-28 01:00 9.06541 -79.38377 35 ft 0 kts 359°
2026-04-28 01:01 9.06543 -79.38377 35 ft 1 kts 359°
2026-04-28 01:01 9.06610 -79.38382 35 ft 13 kts 347°
2026-04-28 01:02 9.06640 -79.38452 35 ft 13 kts 237°
2026-04-28 01:02 9.06568 -79.38508 35 ft 14 kts 212°
2026-04-28 01:02 9.06486 -79.38556 35 ft 14 kts 207°
2026-04-28 01:02 9.06393 -79.38602 35 ft 17 kts 205°
2026-04-28 01:03 9.06322 -79.38650 35 ft 7 kts 262°
2026-04-28 01:03 9.06357 -79.38732 35 ft 19 kts 273°
2026-04-28 01:03 9.06292 -79.38787 35 ft 17 kts 191°
2026-04-28 01:03 9.06152 -79.38841 35 ft 27 kts 223°
2026-04-28 01:04 9.06083 -79.38936 35 ft 13 kts 230°
2026-04-28 01:04 9.06044 -79.38991 35 ft 3 kts 271°
2026-04-28 01:04 9.06061 -79.39013 35 ft 4 kts 313°
2026-04-28 01:04 9.06083 -79.39035 35 ft 5 kts 315°
2026-04-28 01:05 9.06098 -79.39050 35 ft 1 kts 317°
2026-04-28 01:05 9.06100 -79.39051 35 ft 0 kts 317°
2026-04-28 01:07 9.06099 -79.39051 7 ft 0 kts 317°